Showing default

FLOCK 4BE 15, 60491

Orbit data source: Space-Track

FLOCK 4BE 15, 60491 is a payload satellite owned by Planet (US) in SSO that was launched on Fri, 16 Aug 2024 UTC via an FALCON 9 launch vehicle from the Air Force Western Test Range (AFWTR). Payload-class satellites include a variety of spacecraft equipped with specific instruments for various scientific and technological missions. These include communications satellites like Starlink; space stations such as the ISS; scientific satellites like the Hubble; Earth observation satellites from companies like Planet Labs, Umbra, and HawkEye 360; GPS; miniature CubeSats for education and research; and military/defense satellites.

Loading next visibility...
Identifier
60491, 2024-149Z
Orbit
SSO
Country
Flag of USUS
Related business
Manufacturer
Planet
Mission
Operational Commercial Imaging
Bus & Motor
CUBESAT 3U, Unknown motor
Mass
5.7 kg wet, 5.7 kg dry
Launch date (UTC)
2024-08-16 (1 year ago)
Launch vehicle
FALCON 9
Launch site
Air Force Western Test Range (AFWTR)
Object type
Payload
Rocket body
Debris
Shape & HBR
Box + 2 Pan, 1.0 m
Radar Cross Section
0.072 m², Medium (>0.1 m² and < 1m²)

Expand to show TLE details & history
Last TLE update: 7 hours ago

TLE from 7 hours ago
0 FLOCK 4BE 15
1 60491U 24149Z   26035.15285038  .00019613  00000-0  52818-3 0  9995
2 60491  97.3822 118.1067 0004307  64.2965 295.8724 15.37874685 81867
Epoch: 2026-02-04T03:40Z
TLE epoch observation values (Epoch: 2026-02-04T03:40:06.272Z)
Latitude
-0.00006°
Longitude
-71.24295°
Altitude
454.227 km
Speed
7.641 km/s
True Right ascension
07h 52m 25s
True Declination
0° 00' 00"
Sunlit
Object was in full shadow at epoch
Visualization orbit readout
Latitude
Unknown
Longitude
Unknown
Altitude
Unknown
Speed
Unknown
Apparent Right ascension
Unknown
Apparent Declination
Unknown
Sunlit
N/A
Visualization observer readout
Local Sidereal Time
12:24:10
Azimuth
Unknown
Elevation
Unknown
Doppler factor
Unknown
Orbital elements
Apogee altitude
452.277 km
Perigee altitude
446.396 km
Semi-major axis
6,827.473 km
Eccentricity
0.00043
Inclination
97.3822°
RAAN
118.1067°
Arg. of periapsis
64.2965°
True anomaly
295.82798°
Mean anomaly
295.8724°
Eccentric anomaly
295.85019°
Mean motion
3.84727 °/min
Orbital period
93.57 mins
BSTAR
0.00052818
Loading maneuver chart data...
Computing Atmospheric mass density...
Loading historical data...
Loading historical data...
Loading historical data...
Loading historical data...
Loading historical data...
Loading historical data...
Loading historical data...

Documentation

Showing up to 5 results
|